Home > Weather > Wittenberg > Past weeks

Flag for Germany Past Weather in Wittenberg, Saxony-Anhalt, Germany — Yesterday and Last 2 Weeks

Now
54 °F

Drizzle. Fog.


Feels Like: 51 °F
Forecast: 51 / 66 °F
Wind: 8 mph from West

Location: Holzdorf

Current Time: May 25, 2016 at 1:39:32 AM

Latest Report: May 25, 2016 at 12:20 AM


Visibility: 1 mi

Pressure: 29.92 "Hg

Humidity: 100%

Dew Point: 54 °F

Location of WittenbergLocation

Past Weather in Wittenberg — Graph

°F

Wittenberg Temperature Yesterday

Maximum temperature yesterday: 66 °F (at 12:20 PM)
Minimum temperature yesterday: 54 °F (at 11:20 PM)
Average temperature yesterday: 60 °F

High & Low Weather Summary for the Past Weeks

 TemperatureHumidityPressure
High84 °F (May 22, 4:20 PM)100% (May 23, 10:20 PM)30.07 "Hg (May 23, 10:20 PM)
Low39 °F (May 16, 4:20 AM)25% (May 19, 1:20 PM)29.47 "Hg (May 13, 3:20 PM)
Average59 °F61%29.84 "Hg
* Reported May 9 11:20 PM — May 24 11:20 PM, Wittenberg, Weather by CustomWeather, © 2016

Note: Actual official high and low records may vary slightly from our data, if they occured in-between our weather recording intervals... More about our weather records

Advertising

Wittenberg Weather History for the Previous 24 Hours

Scroll right to see more
 ConditionsComfort  
Time TempWeatherWind HumidityBarometerVisibility
11:20 PM
Tue, May 24
54 °FDrizzle. Fog.8 mph94%29.92 "Hg1 mi
10:20 PM55 °FDrizzle. Fog.10 mph94%29.89 "Hg3 mi
9:20 PM55 °FDrizzle. Partly sunny.8 mph94%29.89 "Hg4 mi
8:20 PM55 °FDrizzle. Partly sunny.8 mph94%29.86 "Hg6 mi
7:20 PM57 °FDrizzle. Partly sunny.12 mph88%29.89 "Hg6 mi
6:20 PM59 °FScattered showers. Partly sunny.14 mph88%29.86 "Hg5 mi
5:20 PM61 °FBroken clouds.10 mph83%29.86 "HgN/A
4:20 PM61 °FPartly sunny.12 mph83%29.83 "HgN/A
3:20 PM63 °FPartly sunny.13 mph83%29.83 "HgN/A
3:01 PM63 °FPartly sunny.12 mph83%29.83 "HgN/A
2:20 PM66 °FPartly sunny.10 mph68%29.83 "HgN/A
1:20 PM66 °FBroken clouds.12 mph73%29.80 "HgN/A
12:20 PM66 °FBroken clouds.8 mph73%29.80 "HgN/A
11:20 AM64 °FPartly sunny.9 mph78%29.80 "HgN/A
10:20 AM63 °FBroken clouds.8 mph83%29.80 "HgN/A
10:01 AM63 °FBroken clouds.6 mph88%29.80 "HgN/A
9:20 AM63 °FPartly sunny.7 mph88%29.77 "Hg6 mi
8:20 AM61 °FPartly sunny.6 mph88%29.77 "HgN/A
7:45 AM59 °FPartly sunny.6 mph94%29.77 "HgN/A
7:20 AM59 °FPartly sunny.5 mph94%29.77 "HgN/A
6:20 AM59 °FBroken clouds.2 mph94%29.74 "Hg6 mi
5:20 AM57 °FPassing clouds.No wind100%29.74 "HgN/A
4:20 AM57 °FPassing clouds.1 mph100%29.74 "Hg5 mi
3:50 AM55 °FFog.1 mph100%29.74 "Hg1 mi
3:20 AM55 °FFog.2 mph94%29.74 "Hg1 mi
2:20 AM57 °FFog.2 mph94%29.74 "Hg5 mi
1:20 AM57 °FPassing clouds.6 mph94%29.74 "HgN/A
Weather by CustomWeather, © 2016

See weather overviewHow to use our weather pages